Location: Unspecified
(44.0704°N, 88.6889°W)
Time: 00:04:36
(UTC+02:00)

Altair - Pass Details

Date: 18 June 2019
Orbit: 1501 x 1683 km, 47.2° (Epoch: 14 July)

Event Time Altitude Azimuth Distance (km) Brightness Sun altitude
Rises 10:38:17 0° 294° (WNW) 4,875 10.0 -13.0°
Reaches altitude 10° 10:41:26 10° 291° (WNW) 3,905 9.5 -12.6°
Maximum altitude 10:51:17 63° 214° (SW) 1,841 7.6 -11.5°
Drops below altitude 10° 11:01:14 10° 137° (SE) 3,934 9.6 -10.3°
Sets 11:04:25 0° 134° (SE) 4,913 10.1 -9.9°
